QPF
0.00 0.00 0.00 0.00 0.00 0.00 0.00 0.00 0.00 0.01 0.01 0.01 0.00 0.00 0.00 0.00 0.01 0.02 0.03 0.02 0.00 0.00 0.00 0.01 0.01 0.01 0.02 0.01 0.02 0.01 0.01 0.01 0.01 0.01 0.01 0.01 0.01 0.01 0.02 0.03 0.04 0.05 0.04 0.02 0.02 0.03 0.02 0.02 0.03
0.00 0.00 0.00 0.00 0.00 0.01 0.00 0.00 0.00 0.01 0.01 0.01 0.00 0.00 0.01 0.01 0.00 0.02 0.04 0.02 0.01 0.00 0.00 0.00 0.01 0.01 0.02 0.01 0.01 0.01 0.01 0.02 0.02 0.01 0.01 0.01 0.01 0.01 0.02 0.04 0.05 0.06 0.07 0.06 0.03 0.04 0.03 0.03 0.03
0.01 0.00 0.00 0.00 0.00 0.00 0.01 0.01 0.00 0.00 0.00 0.00 0.00 0.00 0.01 0.01 0.01 0.03 0.04 0.04 0.02 0.01 0.00 0.00 0.00 0.01 0.01 0.01 0.01 0.01 0.01 0.01 0.02 0.01 0.02 0.02 0.03 0.03 0.03 0.03 0.04 0.06 0.07 0.08 0.07 0.06 0.06 0.04 0.04
0.01 0.00 0.00 0.00 0.00 0.00 0.00 0.00 0.00 0.00 0.00 0.00 0.00 0.01 0.01 0.02 0.02 0.03 0.04 0.06 0.04 0.01 0.01 0.01 0.01 0.01 0.01 0.01 0.01 0.01 0.01 0.02 0.02 0.02 0.03 0.03 0.04 0.04 0.03 0.03 0.04 0.05 0.06 0.07 0.08 0.11 0.13 0.07 0.05
0.00 0.01 0.00 0.00 0.00 0.00 0.00 0.00 0.00 0.00 0.00 0.00 0.00 0.01 0.01 0.01 0.01 0.01 0.03 0.02 0.02 0.02 0.02 0.01 0.01 0.01 0.01 0.01 0.01 0.01 0.01 0.01 0.02 0.02 0.02 0.03 0.04 0.05 0.05 0.06 0.06 0.06 0.07 0.07 0.09 0.12 0.16 0.10 0.07
0.01 0.01 0.01 0.01 0.01 0.00 0.00 0.00 0.00 0.00 0.00 0.01 0.01 0.01 0.01 0.01 0.01 0.02 0.02 0.00 0.00 0.02 0.03 0.02 0.01 0.02 0.01 0.01 0.02 0.02 0.02 0.02 0.02 0.01 0.01 0.02 0.02 0.04 0.05 0.07 0.06 0.07 0.07 0.09 0.10 0.11 0.10 0.12 0.09
0.01 0.00 0.01 0.01 0.01 0.00 0.00 0.00 0.00 0.00 0.00 0.01 0.01 0.02 0.01 0.01 0.01 0.01 0.00 0.00 0.01 0.02 0.05 0.04 0.03 0.03 0.02 0.02 0.02 0.03 0.03 0.02 0.02 0.02 0.01 0.01 0.02 0.03 0.04 0.04 0.05 0.06 0.07 0.09 0.11 0.12 0.09 0.10 0.09
0.00 0.00 0.00 0.00 0.00 0.00 0.00 0.00 0.00 0.00 0.00 0.01 0.02 0.03 0.02 0.02 0.01 0.01 0.01 0.01 0.02 0.06 0.08 0.07 0.07 0.06 0.05 0.05 0.04 0.04 0.04 0.04 0.03 0.03 0.03 0.03 0.03 0.02 0.03 0.04 0.05 0.06 0.07 0.08 0.09 0.11 0.12 0.12 0.09
0.00 0.00 0.00 0.00 0.00 0.00 0.00 0.01 0.01 0.00 0.00 0.00 0.01 0.02 0.02 0.02 0.02 0.02 0.02 0.03 0.06 0.13 0.14 0.14 0.14 0.13 0.09 0.08 0.06 0.06 0.06 0.05 0.05 0.05 0.04 0.05 0.05 0.04 0.03 0.04 0.06 0.06 0.06 0.08 0.10 0.11 0.12 0.12 0.11
0.00 0.00 0.00 0.00 0.00 0.01 0.01 0.01 0.00 0.00 0.00 0.01 0.01 0.01 0.02 0.02 0.02 0.03 0.04 0.05 0.07 0.13 0.19 0.13 0.10 0.16 0.14 0.08 0.07 0.07 0.06 0.04 0.04 0.05 0.05 0.05 0.05 0.05 0.05 0.06 0.07 0.07 0.09 0.11 0.11 0.12 0.12 0.11 0.11
0.00 0.00 0.00 0.00 0.00 0.01 0.00 0.00 0.01 0.01 0.00 0.01 0.01 0.01 0.03 0.03 0.02 0.04 0.05 0.06 0.07 0.10 0.11 0.08 0.10 0.13 0.13 0.10 0.07 0.07 0.06 0.04 0.04 0.04 0.04 0.04 0.04 0.05 0.06 0.06 0.06 0.09 0.12 0.14 0.14 0.13 0.14 0.13 0.10
0.00 0.00 0.00 0.00 0.00 0.01 0.00 0.00 0.00 0.01 0.01 0.01 0.02 0.02 0.04 0.05 0.05 0.07 0.09 0.09 0.08 0.09 0.08 0.11 0.13 0.11 0.07 0.10 0.09 0.08 0.06 0.04 0.04 0.05 0.05 0.04 0.03 0.04 0.03 0.04 0.06 0.07 0.08 0.12 0.15 0.14 0.14 0.16 0.14
0.00 0.00 0.00 0.00 0.00 0.00 0.00 0.00 0.00 0.01 0.02 0.04 0.03 0.02 0.04 0.06 0.07 0.08 0.10 0.09 0.07 0.08 0.08 0.11 0.11 0.09 0.08 0.10 0.11 0.09 0.06 0.05 0.05 0.06 0.07 0.07 0.05 0.04 0.03 0.03 0.04 0.05 0.06 0.06 0.07 0.08 0.10 0.12 0.15
0.01 0.01 0.01 0.00 0.00 0.00 0.01 0.00 0.00 0.01 0.02 0.03 0.02 0.02 0.03 0.04 0.06 0.11 0.13 0.16 0.13 0.07 0.07 0.06 0.06 0.06 0.08 0.09 0.09 0.09 0.07 0.07 0.06 0.07 0.09 0.08 0.06 0.04 0.05 0.05 0.04 0.04 0.04 0.05 0.06 0.06 0.08 0.08 0.09
0.01 0.01 0.01 0.01 0.01 0.00 0.01 0.01 0.01 0.01 0.01 0.01 0.02 0.02 0.03 0.03 0.06 0.11 0.12 0.17 0.13 0.05 0.04 0.04 0.05 0.05 0.07 0.08 0.06 0.06 0.06 0.05 0.06 0.07 0.11 0.10 0.09 0.07 0.06 0.05 0.04 0.04 0.04 0.04 0.06 0.07 0.07 0.06 0.06
0.01 0.01 0.01 0.00 0.01 0.00 0.01 0.02 0.01 0.01 0.01 0.02 0.02 0.01 0.03 0.03 0.05 0.05 0.05 0.08 0.07 0.03 0.03 0.04 0.04 0.04 0.05 0.07 0.06 0.04 0.04 0.06 0.07 0.08 0.08 0.08 0.08 0.09 0.09 0.07 0.05 0.04 0.03 0.03 0.04 0.06 0.07 0.06 0.05
0.01 0.01 0.00 0.00 0.00 0.00 0.00 0.01 0.01 0.01 0.01 0.01 0.01 0.01 0.02 0.02 0.03 0.04 0.05 0.06 0.05 0.04 0.04 0.04 0.03 0.03 0.03 0.05 0.04 0.04 0.04 0.06 0.06 0.06 0.06 0.06 0.06 0.08 0.08 0.09 0.09 0.07 0.06 0.05 0.03 0.04 0.06 0.07 0.06
0.00 0.01 0.00 0.00 0.00 0.00 0.00 0.01 0.01 0.01 0.01 0.01 0.01 0.01 0.01 0.03 0.03 0.05 0.06 0.06 0.05 0.04 0.04 0.03 0.02 0.03 0.04 0.05 0.03 0.03 0.04 0.05 0.05 0.05 0.05 0.07 0.07 0.08 0.08 0.08 0.09 0.09 0.07 0.06 0.05 0.05 0.05 0.07 0.08
0.00 0.00 0.00 0.00 0.00 0.00 0.00 0.00 0.01 0.01 0.01 0.01 0.01 0.01 0.01 0.02 0.03 0.04 0.06 0.06 0.04 0.03 0.03 0.03 0.03 0.02 0.03 0.04 0.03 0.03 0.05 0.06 0.07 0.06 0.06 0.06 0.06 0.06 0.07 0.08 0.09 0.10 0.11 0.07 0.05 0.05 0.06 0.06 0.07
0.00 0.00 0.00 0.00 0.00 0.00 0.01 0.01 0.01 0.01 0.01 0.01 0.01 0.01 0.01 0.01 0.02 0.02 0.04 0.08 0.06 0.04 0.04 0.04 0.03 0.03 0.02 0.02 0.03 0.03 0.04 0.06 0.07 0.06 0.06 0.06 0.06 0.06 0.07 0.08 0.09 0.11 0.13 0.10 0.09 0.08 0.07 0.06 0.07
0.00 0.00 0.00 0.00 0.00 0.00 0.01 0.01 0.01 0.02 0.01 0.01 0.01 0.01 0.01 0.00 0.01 0.02 0.02 0.04 0.04 0.04 0.05 0.06 0.05 0.03 0.03 0.02 0.03 0.04 0.04 0.05 0.06 0.05 0.06 0.05 0.05 0.05 0.04 0.05 0.07 0.09 0.11 0.11 0.10 0.09 0.09 0.08 0.08
0.00 0.00 0.00 0.00 0.00 0.01 0.00 0.01 0.00 0.01 0.01 0.00 0.00 0.01 0.00 0.00 0.00 0.01 0.02 0.02 0.03 0.03 0.04 0.05 0.05 0.04 0.03 0.03 0.03 0.04 0.05 0.06 0.05 0.06 0.06 0.05 0.04 0.04 0.05 0.05 0.06 0.05 0.06 0.08 0.07 0.06 0.07 0.09 0.08
0.00 0.00 0.00 0.00 0.00 0.00 0.00 0.01 0.01 0.00 0.01 0.00 0.00 0.00 0.00 0.00 0.01 0.01 0.02 0.01 0.02 0.03 0.03 0.04 0.05 0.04 0.03 0.04 0.04 0.04 0.03 0.04 0.04 0.05 0.05 0.05 0.05 0.05 0.05 0.07 0.06 0.05 0.05 0.05 0.05 0.06 0.06 0.07 0.07
0.00 0.00 0.00 0.00 0.00 0.00 0.00 0.01 0.01 0.01 0.01 0.01 0.01 0.00 0.00 0.01 0.01 0.02 0.02 0.02 0.02 0.02 0.02 0.03 0.03 0.04 0.04 0.03 0.04 0.04 0.03 0.04 0.04 0.04 0.05 0.05 0.06 0.06 0.06 0.08 0.06 0.04 0.04 0.03 0.04 0.05 0.06 0.07 0.06
0.00 0.00 0.00 0.01 0.01 0.00 0.00 0.01 0.01 0.01 0.01 0.01 0.01 0.00 0.01 0.01 0.01 0.02 0.02 0.03 0.03 0.04 0.02 0.02 0.02 0.02 0.03 0.03 0.05 0.05 0.06 0.07 0.06 0.05 0.04 0.06 0.06 0.05 0.05 0.04 0.04 0.03 0.03 0.03 0.04 0.05 0.06 0.06 0.06
0.00 0.00 0.00 0.00 0.00 0.00 0.00 0.00 0.01 0.01 0.01 0.01 0.00 0.00 0.00 0.01 0.01 0.02 0.02 0.05 0.07 0.07 0.04 0.03 0.02 0.03 0.03 0.03 0.04 0.05 0.07 0.07 0.05 0.04 0.05 0.06 0.06 0.05 0.04 0.04 0.04 0.04 0.04 0.03 0.03 0.04 0.04 0.05 0.06
0.00 0.00 0.00 0.00 0.00 0.00 0.00 0.00 0.01 0.01 0.01 0.00 0.00 0.00 0.01 0.02 0.02 0.02 0.04 0.07 0.10 0.09 0.04 0.03 0.04 0.04 0.05 0.05 0.05 0.06 0.06 0.05 0.04 0.03 0.03 0.04 0.04 0.03 0.03 0.04 0.03 0.03 0.03 0.03 0.02 0.02 0.02 0.03 0.04
0.00 0.00 0.00 0.00 0.00 0.00 0.00 0.00 0.01 0.01 0.00 0.00 0.00 0.00 0.01 0.02 0.02 0.02 0.04 0.05 0.08 0.08 0.06 0.05 0.05 0.06 0.06 0.04 0.04 0.04 0.04 0.03 0.03 0.03 0.02 0.03 0.03 0.03 0.03 0.03 0.02 0.02 0.02 0.03 0.03 0.02 0.02 0.03 0.04
0.00 0.00 0.00 0.00 0.00 0.00 0.00 0.01 0.01 0.00 0.00 0.00 0.00 0.01 0.01 0.01 0.02 0.02 0.02 0.02 0.02 0.04 0.06 0.06 0.05 0.04 0.03 0.03 0.03 0.03 0.02 0.02 0.02 0.02 0.02 0.02 0.03 0.03 0.02 0.02 0.03 0.02 0.02 0.03 0.03 0.03 0.03 0.03 0.04
0.00 0.00 0.00 0.00 0.00 0.00 0.00 0.01 0.00 0.00 0.00 0.00 0.01 0.01 0.01 0.01 0.01 0.02 0.01 0.01 0.02 0.04 0.05 0.06 0.04 0.03 0.03 0.04 0.04 0.04 0.02 0.02 0.02 0.02 0.02 0.02 0.02 0.02 0.02 0.03 0.03 0.04 0.03 0.03 0.03 0.03 0.03 0.03 0.03
MSLP
1010.02 1010.33 1010.79 1011.32 1011.81 1012.20 1012.43 1012.49 1012.42 1012.27 1012.11 1011.97 1011.88 1011.82 1011.77 1011.69 1011.55 1011.38 1011.19 1011.04 1010.99 1011.09 1011.35 1011.76 1012.27 1012.78 1013.24 1013.59 1013.81 1013.93 1013.99 1014.07 1014.23 1014.50 1014.89 1015.36 1015.85 1016.29 1016.63 1016.85 1016.95 1016.98 1017.00 1017.06 1017.19 1017.40 1017.66 1017.91 1018.11
1010.06 1010.44 1010.95 1011.51 1012.01 1012.38 1012.58 1012.59 1012.46 1012.24 1011.99 1011.77 1011.60 1011.47 1011.37 1011.27 1011.14 1010.99 1010.85 1010.76 1010.78 1010.94 1011.26 1011.73 1012.28 1012.84 1013.35 1013.74 1014.00 1014.15 1014.24 1014.34 1014.50 1014.77 1015.14 1015.57 1016.02 1016.42 1016.74 1016.93 1017.03 1017.07 1017.11 1017.20 1017.37 1017.60 1017.87 1018.12 1018.29
1010.21 1010.62 1011.14 1011.67 1012.12 1012.44 1012.58 1012.54 1012.37 1012.11 1011.83 1011.59 1011.40 1011.27 1011.16 1011.07 1010.95 1010.81 1010.69 1010.62 1010.65 1010.83 1011.17 1011.65 1012.23 1012.82 1013.37 1013.81 1014.13 1014.34 1014.48 1014.61 1014.79 1015.05 1015.39 1015.78 1016.19 1016.56 1016.84 1017.03 1017.15 1017.22 1017.30 1017.42 1017.61 1017.85 1018.10 1018.32 1018.44
1010.44 1010.86 1011.33 1011.79 1012.16 1012.40 1012.47 1012.38 1012.18 1011.93 1011.68 1011.47 1011.33 1011.23 1011.17 1011.10 1011.00 1010.88 1010.75 1010.67 1010.68 1010.83 1011.15 1011.61 1012.18 1012.79 1013.36 1013.85 1014.23 1014.50 1014.70 1014.87 1015.07 1015.32 1015.64 1016.00 1016.37 1016.71 1016.98 1017.18 1017.31 1017.42 1017.54 1017.69 1017.89 1018.12 1018.34 1018.50 1018.55
1010.73 1011.11 1011.52 1011.88 1012.15 1012.28 1012.28 1012.16 1011.96 1011.74 1011.56 1011.43 1011.38 1011.37 1011.38 1011.37 1011.30 1011.19 1011.05 1010.93 1010.90 1011.00 1011.25 1011.66 1012.20 1012.79 1013.37 1013.89 1014.32 1014.65 1014.89 1015.10 1015.32 1015.57 1015.86 1016.20 1016.54 1016.86 1017.13 1017.34 1017.51 1017.65 1017.80 1017.98 1018.17 1018.37 1018.53 1018.62 1018.60
1011.03 1011.37 1011.69 1011.95 1012.11 1012.15 1012.08 1011.94 1011.76 1011.60 1011.51 1011.49 1011.55 1011.66 1011.76 1011.82 1011.81 1011.71 1011.56 1011.41 1011.31 1011.34 1011.51 1011.84 1012.31 1012.86 1013.42 1013.95 1014.40 1014.76 1015.05 1015.29 1015.52 1015.77 1016.05 1016.36 1016.67 1016.98 1017.25 1017.48 1017.67 1017.84 1018.01 1018.18 1018.35 1018.51 1018.61 1018.62 1018.54
1011.31 1011.60 1011.84 1012.01 1012.08 1012.04 1011.93 1011.78 1011.63 1011.54 1011.54 1011.63 1011.81 1012.02 1012.23 1012.37 1012.41 1012.34 1012.20 1012.02 1011.87 1011.82 1011.91 1012.15 1012.53 1013.01 1013.52 1014.02 1014.46 1014.84 1015.14 1015.39 1015.63 1015.88 1016.14 1016.43 1016.73 1017.03 1017.29 1017.53 1017.74 1017.92 1018.08 1018.24 1018.38 1018.48 1018.52 1018.49 1018.37
1011.53 1011.78 1011.97 1012.07 1012.08 1012.00 1011.87 1011.72 1011.60 1011.57 1011.64 1011.83 1012.10 1012.40 1012.69 1012.91 1013.01 1012.99 1012.86 1012.68 1012.50 1012.39 1012.40 1012.54 1012.82 1013.20 1013.64 1014.08 1014.49 1014.84 1015.14 1015.39 1015.63 1015.87 1016.13 1016.40 1016.69 1016.97 1017.23 1017.46 1017.66 1017.84 1017.99 1018.12 1018.22 1018.28 1018.29 1018.23 1018.11
1011.68 1011.91 1012.07 1012.14 1012.12 1012.04 1011.91 1011.78 1011.69 1011.70 1011.83 1012.06 1012.38 1012.75 1013.10 1013.37 1013.53 1013.56 1013.47 1013.31 1013.12 1012.97 1012.91 1012.96 1013.14 1013.41 1013.74 1014.10 1014.44 1014.75 1015.02 1015.27 1015.50 1015.74 1015.99 1016.25 1016.53 1016.79 1017.04 1017.26 1017.45 1017.61 1017.75 1017.85 1017.93 1017.96 1017.96 1017.90 1017.81
1011.76 1012.00 1012.15 1012.23 1012.23 1012.16 1012.05 1011.95 1011.90 1011.94 1012.08 1012.32 1012.66 1013.04 1013.41 1013.72 1013.93 1014.00 1013.96 1013.83 1013.66 1013.49 1013.38 1013.36 1013.43 1013.59 1013.81 1014.06 1014.31 1014.56 1014.80 1015.02 1015.24 1015.48 1015.73 1016.00 1016.27 1016.53 1016.78 1016.98 1017.16 1017.30 1017.42 1017.51 1017.57 1017.60 1017.61 1017.59 1017.54
1011.81 1012.05 1012.23 1012.33 1012.37 1012.35 1012.29 1012.23 1012.21 1012.26 1012.39 1012.62 1012.92 1013.28 1013.64 1013.95 1014.18 1014.30 1014.31 1014.23 1014.08 1013.92 1013.78 1013.69 1013.67 1013.72 1013.82 1013.96 1014.12 1014.30 1014.49 1014.69 1014.90 1015.15 1015.41 1015.69 1015.98 1016.24 1016.49 1016.69 1016.86 1017.00 1017.10 1017.19 1017.26 1017.31 1017.35 1017.37 1017.39
1011.86 1012.10 1012.30 1012.44 1012.53 1012.57 1012.58 1012.58 1012.60 1012.65 1012.77 1012.95 1013.21 1013.51 1013.82 1014.11 1014.34 1014.48 1014.53 1014.49 1014.38 1014.23 1014.07 1013.93 1013.84 1013.79 1013.79 1013.83 1013.90 1014.01 1014.15 1014.33 1014.55 1014.80 1015.09 1015.39 1015.70 1015.99 1016.25 1016.47 1016.64 1016.79 1016.90 1016.99 1017.08 1017.16 1017.24 1017.32 1017.40
1011.95 1012.17 1012.37 1012.54 1012.69 1012.80 1012.89 1012.96 1013.02 1013.10 1013.20 1013.34 1013.53 1013.75 1014.00 1014.23 1014.43 1014.57 1014.64 1014.62 1014.54 1014.41 1014.25 1014.09 1013.94 1013.82 1013.74 1013.70 1013.71 1013.76 1013.86 1014.03 1014.25 1014.52 1014.83 1015.17 1015.51 1015.83 1016.12 1016.36 1016.56 1016.72 1016.86 1016.98 1017.09 1017.20 1017.32 1017.45 1017.56
1012.11 1012.28 1012.45 1012.63 1012.82 1013.00 1013.17 1013.32 1013.45 1013.56 1013.66 1013.77 1013.90 1014.04 1014.20 1014.36 1014.51 1014.61 1014.66 1014.65 1014.58 1014.46 1014.31 1014.15 1013.98 1013.83 1013.71 1013.63 1013.60 1013.62 1013.71 1013.86 1014.09 1014.37 1014.71 1015.08 1015.45 1015.81 1016.13 1016.41 1016.64 1016.83 1016.99 1017.13 1017.27 1017.41 1017.56 1017.70 1017.84
1012.36 1012.44 1012.55 1012.71 1012.91 1013.15 1013.40 1013.64 1013.84 1014.01 1014.13 1014.22 1014.30 1014.37 1014.44 1014.51 1014.57 1014.61 1014.62 1014.58 1014.50 1014.39 1014.26 1014.11 1013.96 1013.83 1013.72 1013.65 1013.62 1013.64 1013.73 1013.89 1014.12 1014.41 1014.76 1015.14 1015.53 1015.92 1016.27 1016.58 1016.84 1017.06 1017.24 1017.40 1017.56 1017.71 1017.86 1018.01 1018.15
1012.69 1012.65 1012.66 1012.77 1012.97 1013.25 1013.57 1013.89 1014.17 1014.40 1014.56 1014.66 1014.70 1014.71 1014.69 1014.66 1014.62 1014.56 1014.50 1014.41 1014.31 1014.20 1014.08 1013.97 1013.88 1013.81 1013.76 1013.75 1013.77 1013.83 1013.94 1014.11 1014.34 1014.63 1014.97 1015.34 1015.74 1016.13 1016.50 1016.82 1017.11 1017.34 1017.54 1017.71 1017.86 1018.01 1018.15 1018.28 1018.40
1013.06 1012.88 1012.80 1012.84 1013.02 1013.31 1013.68 1014.07 1014.43 1014.72 1014.92 1015.03 1015.06 1015.01 1014.91 1014.78 1014.62 1014.46 1014.30 1014.14 1014.00 1013.88 1013.80 1013.75 1013.73 1013.76 1013.82 1013.91 1014.02 1014.15 1014.31 1014.50 1014.73 1015.00 1015.32 1015.66 1016.03 1016.40 1016.76 1017.09 1017.37 1017.62 1017.81 1017.97 1018.11 1018.23 1018.35 1018.45 1018.55
1013.44 1013.14 1012.96 1012.94 1013.09 1013.38 1013.77 1014.20 1014.60 1014.94 1015.18 1015.30 1015.31 1015.22 1015.05 1014.83 1014.56 1014.29 1014.03 1013.80 1013.61 1013.48 1013.42 1013.43 1013.53 1013.68 1013.87 1014.09 1014.33 1014.56 1014.78 1015.00 1015.23 1015.47 1015.74 1016.03 1016.35 1016.69 1017.02 1017.33 1017.60 1017.84 1018.02 1018.16 1018.27 1018.36 1018.44 1018.52 1018.58
1013.77 1013.40 1013.16 1013.10 1013.21 1013.48 1013.86 1014.29 1014.71 1015.07 1015.31 1015.44 1015.43 1015.31 1015.08 1014.79 1014.44 1014.08 1013.73 1013.42 1013.18 1013.03 1013.00 1013.08 1013.27 1013.55 1013.89 1014.26 1014.62 1014.96 1015.26 1015.51 1015.74 1015.95 1016.17 1016.41 1016.67 1016.95 1017.24 1017.52 1017.78 1017.99 1018.16 1018.28 1018.36 1018.42 1018.46 1018.50 1018.54
1014.06 1013.67 1013.42 1013.33 1013.41 1013.65 1013.99 1014.39 1014.77 1015.10 1015.32 1015.43 1015.41 1015.26 1015.01 1014.67 1014.28 1013.85 1013.44 1013.08 1012.80 1012.64 1012.62 1012.74 1013.02 1013.41 1013.87 1014.37 1014.85 1015.29 1015.66 1015.96 1016.18 1016.37 1016.55 1016.73 1016.93 1017.17 1017.42 1017.67 1017.91 1018.11 1018.26 1018.36 1018.42 1018.44 1018.45 1018.46 1018.48
1014.28 1013.95 1013.73 1013.65 1013.71 1013.90 1014.18 1014.49 1014.80 1015.05 1015.22 1015.29 1015.25 1015.10 1014.85 1014.51 1014.11 1013.68 1013.25 1012.86 1012.55 1012.37 1012.35 1012.50 1012.81 1013.27 1013.81 1014.40 1014.98 1015.50 1015.93 1016.26 1016.50 1016.68 1016.82 1016.97 1017.13 1017.33 1017.56 1017.80 1018.03 1018.22 1018.37 1018.46 1018.49 1018.50 1018.48 1018.47 1018.47
1014.45 1014.23 1014.08 1014.04 1014.09 1014.22 1014.40 1014.60 1014.79 1014.93 1015.02 1015.04 1014.98 1014.85 1014.64 1014.35 1014.00 1013.61 1013.21 1012.82 1012.51 1012.32 1012.28 1012.41 1012.72 1013.18 1013.75 1014.38 1015.00 1015.56 1016.03 1016.39 1016.65 1016.84 1016.98 1017.11 1017.26 1017.45 1017.67 1017.91 1018.15 1018.35 1018.50 1018.59 1018.62 1018.61 1018.58 1018.56 1018.55
1014.59 1014.51 1014.46 1014.46 1014.51 1014.57 1014.65 1014.71 1014.75 1014.77 1014.76 1014.72 1014.65 1014.56 1014.42 1014.23 1013.98 1013.68 1013.35 1013.01 1012.72 1012.51 1012.44 1012.52 1012.78 1013.19 1013.72 1014.32 1014.94 1015.51 1015.99 1016.38 1016.66 1016.86 1017.02 1017.17 1017.33 1017.53 1017.76 1018.02 1018.27 1018.49 1018.66 1018.76 1018.80 1018.78 1018.75 1018.71 1018.69
1014.73 1014.78 1014.83 1014.88 1014.91 1014.90 1014.86 1014.78 1014.68 1014.56 1014.45 1014.36 1014.30 1014.25 1014.21 1014.15 1014.04 1013.87 1013.65 1013.40 1013.14 1012.93 1012.81 1012.82 1012.99 1013.31 1013.76 1014.29 1014.84 1015.38 1015.86 1016.25 1016.56 1016.79 1016.98 1017.16 1017.35 1017.58 1017.84 1018.11 1018.38 1018.62 1018.80 1018.92 1018.96 1018.96 1018.92 1018.87 1018.84
1014.84 1015.00 1015.13 1015.21 1015.23 1015.15 1015.01 1014.79 1014.55 1014.31 1014.12 1013.99 1013.94 1013.96 1014.03 1014.11 1014.16 1014.15 1014.06 1013.90 1013.71 1013.50 1013.35 1013.28 1013.35 1013.55 1013.88 1014.30 1014.77 1015.25 1015.70 1016.09 1016.42 1016.68 1016.91 1017.13 1017.36 1017.61 1017.89 1018.18 1018.46 1018.71 1018.89 1019.01 1019.07 1019.06 1019.02 1018.97 1018.94
1014.93 1015.15 1015.33 1015.42 1015.41 1015.27 1015.04 1014.72 1014.38 1014.05 1013.79 1013.64 1013.61 1013.70 1013.87 1014.09 1014.29 1014.43 1014.48 1014.44 1014.31 1014.13 1013.95 1013.83 1013.79 1013.88 1014.08 1014.39 1014.77 1015.18 1015.59 1015.97 1016.30 1016.59 1016.85 1017.10 1017.36 1017.62 1017.91 1018.20 1018.47 1018.70 1018.88 1019.00 1019.05 1019.04 1019.00 1018.96 1018.92
1014.95 1015.19 1015.37 1015.45 1015.41 1015.23 1014.94 1014.56 1014.16 1013.78 1013.49 1013.33 1013.33 1013.47 1013.72 1014.05 1014.37 1014.65 1014.82 1014.88 1014.83 1014.69 1014.52 1014.36 1014.26 1014.25 1014.36 1014.57 1014.86 1015.21 1015.58 1015.94 1016.28 1016.58 1016.86 1017.12 1017.38 1017.64 1017.91 1018.17 1018.41 1018.61 1018.76 1018.85 1018.89 1018.87 1018.84 1018.79 1018.76
1014.89 1015.10 1015.24 1015.30 1015.23 1015.03 1014.72 1014.32 1013.90 1013.52 1013.23 1013.08 1013.09 1013.27 1013.58 1013.96 1014.37 1014.73 1015.01 1015.16 1015.18 1015.10 1014.96 1014.80 1014.68 1014.63 1014.68 1014.83 1015.06 1015.36 1015.69 1016.03 1016.36 1016.67 1016.94 1017.20 1017.44 1017.67 1017.90 1018.10 1018.29 1018.44 1018.54 1018.59 1018.61 1018.58 1018.54 1018.50 1018.47
1014.73 1014.86 1014.95 1014.96 1014.87 1014.68 1014.38 1014.02 1013.63 1013.28 1013.02 1012.89 1012.92 1013.10 1013.42 1013.83 1014.26 1014.67 1014.99 1015.21 1015.31 1015.30 1015.22 1015.11 1015.01 1014.97 1015.01 1015.14 1015.34 1015.61 1015.92 1016.24 1016.55 1016.84 1017.10 1017.33 1017.53 1017.72 1017.88 1018.02 1018.14 1018.22 1018.27 1018.28 1018.26 1018.22 1018.17 1018.13 1018.11
1014.47 1014.51 1014.53 1014.49 1014.39 1014.21 1013.96 1013.66 1013.35 1013.06 1012.85 1012.76 1012.79 1012.97 1013.26 1013.64 1014.05 1014.46 1014.80 1015.06 1015.22 1015.29 1015.29 1015.25 1015.22 1015.23 1015.31 1015.45 1015.66 1015.92 1016.21 1016.51 1016.80 1017.06 1017.29 1017.48 1017.64 1017.76 1017.86 1017.93 1017.98 1018.00 1017.99 1017.96 1017.92 1017.86 1017.81 1017.77 1017.75
Thickness
5797 5803 5807 5804 5797 5795 5789 5795 5800 5799 5801 5809 5811 5808 5802 5797 5790 5782 5801 5809 5807 5804 5798 5789 5784 5782 5780 5778 5776 5774 5772 5769 5767 5766 5764 5762 5760 5759 5757 5756 5754 5753 5752 5751 5750 5749 5748 5747 5747
5803 5804 5802 5801 5794 5784 5785 5796 5795 5796 5802 5809 5809 5806 5800 5796 5799 5798 5801 5802 5802 5799 5794 5788 5781 5778 5776 5774 5772 5770 5768 5766 5764 5762 5760 5758 5757 5755 5754 5753 5751 5750 5748 5747 5747 5746 5745 5744 5743
5802 5803 5799 5797 5789 5787 5784 5794 5795 5800 5806 5805 5801 5802 5796 5790 5794 5796 5798 5799 5798 5794 5790 5784 5778 5775 5773 5770 5768 5766 5765 5762 5760 5758 5757 5755 5754 5752 5751 5749 5748 5747 5746 5744 5744 5743 5742 5741 5740
5801 5798 5798 5791 5784 5791 5792 5795 5798 5798 5801 5803 5799 5792 5793 5793 5794 5795 5796 5796 5792 5790 5786 5780 5774 5771 5769 5766 5764 5762 5760 5758 5756 5754 5753 5751 5750 5749 5748 5746 5745 5744 5743 5742 5741 5740 5739 5739 5738
5799 5797 5788 5784 5785 5792 5797 5799 5799 5795 5793 5796 5795 5787 5783 5790 5794 5793 5792 5790 5788 5786 5783 5776 5769 5766 5763 5762 5759 5757 5756 5754 5752 5751 5749 5747 5746 5744 5744 5743 5742 5741 5740 5739 5738 5737 5736 5735 5735
5794 5795 5783 5778 5782 5790 5796 5799 5797 5793 5793 5793 5791 5784 5780 5787 5787 5787 5788 5786 5785 5782 5779 5772 5764 5761 5758 5757 5755 5753 5751 5749 5748 5746 5744 5743 5742 5741 5740 5739 5738 5738 5737 5736 5735 5734 5734 5733 5732
5790 5789 5781 5782 5780 5784 5790 5797 5793 5790 5787 5788 5791 5780 5778 5780 5782 5783 5783 5781 5780 5777 5773 5769 5763 5757 5754 5752 5750 5748 5747 5745 5743 5742 5740 5739 5738 5737 5736 5735 5735 5734 5734 5733 5733 5732 5731 5730 5730
5796 5791 5782 5782 5779 5781 5791 5794 5793 5788 5784 5790 5788 5776 5770 5774 5778 5778 5777 5775 5772 5769 5767 5764 5761 5757 5753 5750 5746 5744 5742 5740 5739 5738 5736 5735 5734 5733 5733 5733 5732 5731 5731 5730 5730 5730 5728 5728 5727
5795 5785 5778 5780 5779 5782 5791 5788 5789 5791 5785 5782 5782 5777 5775 5775 5774 5770 5767 5765 5762 5761 5760 5759 5757 5754 5751 5749 5745 5742 5739 5736 5735 5734 5733 5732 5734 5734 5732 5731 5729 5728 5727 5727 5727 5727 5726 5726 5726
5790 5780 5780 5786 5788 5786 5786 5784 5783 5781 5775 5773 5772 5772 5773 5771 5768 5763 5760 5757 5755 5753 5753 5754 5752 5750 5748 5746 5742 5740 5739 5736 5735 5734 5732 5732 5731 5731 5731 5728 5726 5725 5725 5724 5725 5725 5724 5724 5726
5787 5779 5784 5786 5788 5787 5782 5780 5782 5775 5766 5769 5766 5766 5767 5765 5762 5758 5756 5753 5751 5750 5748 5749 5747 5745 5743 5742 5740 5738 5737 5735 5734 5731 5729 5728 5728 5728 5727 5727 5725 5724 5723 5724 5724 5724 5725 5725 5725
5781 5780 5783 5784 5785 5783 5780 5778 5774 5769 5766 5772 5771 5769 5764 5759 5756 5753 5750 5748 5746 5745 5743 5742 5741 5739 5738 5737 5736 5735 5734 5732 5731 5729 5726 5726 5725 5725 5725 5724 5724 5723 5722 5722 5723 5722 5723 5722 5722
5777 5777 5781 5783 5783 5782 5778 5773 5770 5765 5769 5771 5769 5764 5759 5756 5753 5751 5748 5745 5742 5739 5739 5738 5737 5735 5733 5731 5730 5730 5730 5729 5728 5725 5723 5721 5720 5720 5721 5720 5720 5720 5720 5720 5719 5720 5719 5718 5717
5779 5778 5778 5780 5779 5779 5773 5770 5766 5762 5768 5764 5761 5757 5754 5752 5750 5747 5743 5739 5737 5735 5734 5734 5731 5730 5729 5727 5726 5725 5725 5724 5724 5722 5720 5717 5716 5715 5715 5716 5715 5715 5715 5716 5715 5715 5714 5714 5714
5779 5772 5772 5775 5776 5775 5772 5760 5759 5762 5764 5758 5754 5751 5748 5746 5745 5742 5740 5736 5735 5733 5732 5730 5728 5727 5725 5723 5723 5722 5722 5721 5720 5718 5715 5713 5712 5711 5710 5710 5710 5710 5709 5708 5709 5709 5709 5709 5709
5776 5770 5764 5770 5773 5773 5765 5750 5758 5762 5759 5753 5750 5746 5742 5740 5740 5739 5738 5735 5734 5732 5729 5727 5727 5724 5722 5720 5719 5719 5718 5717 5716 5715 5712 5710 5708 5706 5705 5705 5705 5703 5703 5703 5703 5704 5704 5704 5703
5769 5764 5763 5765 5773 5771 5764 5752 5755 5759 5755 5749 5747 5744 5740 5737 5736 5736 5736 5735 5733 5731 5728 5726 5724 5722 5720 5718 5716 5715 5714 5713 5712 5711 5709 5706 5704 5702 5701 5700 5699 5698 5698 5698 5698 5699 5698 5698 5697
5762 5765 5763 5762 5767 5765 5758 5752 5751 5753 5751 5747 5745 5741 5737 5733 5732 5733 5732 5732 5731 5728 5726 5724 5722 5719 5717 5715 5713 5711 5710 5710 5708 5707 5704 5702 5700 5698 5696 5696 5695 5694 5693 5692 5692 5691 5691 5691 5692
5770 5765 5761 5761 5766 5760 5754 5749 5748 5749 5747 5744 5741 5737 5734 5731 5731 5731 5730 5729 5727 5725 5723 5720 5718 5715 5713 5711 5708 5706 5706 5705 5704 5702 5700 5698 5696 5693 5692 5692 5691 5689 5688 5687 5686 5686 5686 5686 5686
5766 5760 5758 5759 5761 5756 5750 5746 5748 5746 5743 5741 5737 5734 5731 5729 5727 5726 5725 5724 5722 5719 5717 5715 5713 5712 5709 5707 5704 5703 5701 5700 5699 5698 5695 5694 5691 5689 5689 5687 5687 5686 5683 5681 5681 5679 5680 5681 5681
5762 5761 5759 5753 5753 5755 5747 5740 5742 5743 5742 5739 5737 5735 5732 5728 5724 5722 5721 5719 5718 5715 5713 5712 5709 5707 5704 5702 5702 5699 5697 5696 5694 5693 5691 5690 5688 5686 5684 5684 5683 5682 5680 5678 5676 5675 5673 5674 5675
5756 5766 5761 5753 5746 5746 5745 5735 5740 5740 5735 5734 5734 5733 5730 5727 5724 5721 5718 5716 5714 5712 5710 5707 5705 5702 5700 5698 5698 5695 5692 5690 5690 5689 5688 5686 5684 5682 5680 5679 5678 5677 5676 5674 5674 5673 5671 5669 5669
5759 5764 5759 5754 5749 5744 5744 5735 5740 5739 5730 5730 5731 5730 5728 5726 5722 5718 5716 5713 5711 5710 5707 5704 5701 5698 5696 5694 5693 5691 5689 5688 5688 5686 5684 5682 5681 5679 5677 5674 5673 5672 5672 5670 5669 5668 5667 5666 5665
5761 5757 5754 5752 5751 5733 5740 5733 5732 5736 5729 5728 5728 5727 5724 5722 5719 5716 5713 5711 5708 5707 5704 5701 5697 5693 5692 5690 5688 5686 5684 5683 5682 5681 5679 5679 5678 5676 5673 5671 5668 5667 5666 5665 5664 5663 5662 5661 5660
5756 5747 5738 5735 5735 5735 5738 5732 5729 5733 5732 5728 5725 5723 5721 5719 5716 5712 5709 5706 5704 5702 5700 5698 5694 5690 5688 5686 5684 5683 5681 5679 5678 5676 5675 5675 5674 5672 5668 5667 5663 5662 5661 5660 5659 5657 5657 5656 5655
5751 5748 5733 5725 5730 5736 5733 5729 5733 5734 5731 5729 5726 5723 5720 5716 5713 5709 5706 5703 5701 5699 5696 5694 5690 5686 5685 5683 5681 5679 5677 5677 5676 5673 5672 5670 5669 5667 5664 5661 5659 5658 5656 5655 5653 5653 5652 5652 5651
5748 5748 5753 5741 5736 5730 5734 5731 5730 5731 5726 5724 5721 5719 5715 5713 5709 5707 5704 5700 5698 5696 5693 5691 5687 5684 5682 5681 5679 5677 5675 5673 5671 5669 5668 5667 5663 5661 5658 5655 5653 5652 5650 5649 5648 5648 5646 5646 5646
5754 5750 5742 5735 5719 5719 5726 5726 5726 5721 5719 5719 5716 5713 5712 5710 5707 5705 5701 5698 5696 5694 5691 5689 5685 5682 5680 5678 5677 5675 5672 5669 5667 5665 5662 5660 5657 5655 5652 5649 5646 5645 5644 5643 5642 5642 5642 5640 5640
5742 5740 5737 5736 5731 5717 5714 5721 5731 5722 5719 5716 5715 5712 5709 5707 5705 5702 5700 5697 5695 5692 5689 5686 5684 5681 5678 5676 5673 5671 5668 5665 5663 5661 5659 5656 5653 5650 5647 5645 5642 5640 5639 5637 5636 5637 5636 5635 5635
5745 5740 5735 5723 5720 5722 5719 5717 5728 5724 5719 5716 5713 5710 5708 5705 5703 5701 5698 5695 5692 5688 5686 5684 5681 5679 5676 5673 5670 5667 5665 5662 5659 5657 5654 5652 5649 5646 5643 5641 5638 5636 5634 5632 5631 5631 5632 5631 5630